SCP
0 0 0 0 0 0 0 0 0 0 0 0 0 0 0 0 0 0 0 0 0 0 0 0 0 0 0 0 0 0 0 0 0 0 0 0 0 0 0 0 0 0 0 0
0 0 0 0 0 0 0 0 0 0 0 0 0 0 0 0 0 0 0 0 0 0 0 0 0 0 0 0 0 0 0 0 0 0 0 0 0 0 0 0 0 0 0 0
0 0 0 0 0 0 0 0 0 0 0 0 0 0 0 0 0 0 0 0 0 0 0 0 0 0 0 0 0 0 0 0 0 0 0 0 0 0 0 0 0 0 0 0
0 0 0 0 0 0 0 0 0 0 0 0 0 0 0 0 0 0 0 0 0 0 0 0 0 0 0 0 0 0 0 0 0 0 0 0 0 0 0 0 0 0 0 0
0 0 0 0 0 0 0 0 0 0 0 0 0 0 0 0 0 0 0 0 0 0 0 0 0 0 0 0 0 0 0 0 0 0 0 0 0 0 0 0 0 0 0 0
0 0 0 0 0 0 0 0 0 0 0 0 0 0 0 0 0 0 0 0 0 0 0 0 0 0 0 0 0 0 0 0 0 0 0 0 0 0 0 0 0 0 0 0
0 0 0 0 0 0 0 0 0 0 0 0 0 0 0 0 0 0 0 0 0 0 0 0 0 0 0 0 0 0 0 0 0 0 0 0 0 0 0 0 0 0 0 0
0 0 0 0 0 0 0 0 0 0 0 0 0 0 0 0 0 0 0 0 0 0 0 0 0 0 0 0 0 0 0 0 0 0 0 0 0 0 0 0 0 0 0 0
0 0 0 0 0 0 0 0 0 0 0 0 0 0 0 0 0 0 0 0 0 0 0 0 0 0 0 0 0 0 0 0 0 0 0 0 0 0 0 0 0 0 0 0
0 0 0 0 0 0 0 0 0 0 0 0 0 0 0 0 0 0 0 0 0 0 0 0 0 0 0 0 0 0 0 0 0 0 0 0 0 0 0 0 0 0 0 0
0 0 0 0 0 0 0 0 0 0 0 0 0 0 0 0 0 0 0 0 0 0 0 0 0 0 0 0 0 0 0 0 0 0 0 0 0 0 0 0 0 0 0 0
0 0 0 0 0 0 0 0 0 0 0 0 0 0 0 0 0 0 0 0 0 0 0 0 0 0 0 0 0 0 0 0 0 0 0 0 0 0 0 0 0 0 0 0
0 0 0 0 0 0 0 0 0 0 0 0 0 0 0 0 0 0 0 0 0 0 0 0 0 0 0 0 0 0 0 0 0 0 0 0 0 0 0 0 0 0 0 0
0 0 0 0 0 0 0 0 0 0 0 0 0 0 0 0 0 0 0 0 0 0 0 0 0 0 0 0 0 0 0 0 0 0 0 0 0 0 0 0 0 0 0 0
0 0 0 0 0 0 0 0 0 0 0 0 0 0 0 0 0 0 0 0 0 0 0 0 0 0 0 0 0 0 0 0 0 0 0 0 0 0 0 0 0 0 0 0
0 0 0 0 0 0 0 0 0 0 0 0 0 0 0 0 0 0 0 0 0 0 0 0 0 0 0 0 0 0 0 0 0 0 0 0 0 0 0 0 0 0 0 0
0 0 0 0 0 0 0 0 0 0 0 0 0 0 0 0 0 0 0 0 0 0 0 0 0 0 0 0 0 0 0 0 0 0 0 0 0 0 0 0 0 0 0 0
0 0 0 0 0 0 0 0 0 0 0 0 0 0 0 0 0 0 0 0 0 0 0 0 0 0 0 0 0 0 0 0 0 0 0 0 0 0 0 0 0 0 0 0
0 0 0 0 0 0 0 0 0 0 0 0 0 0 0 0 0 0 0 0 0 0 0 0 0 0 0 0 0 0 0 0 0 0 0 0 0 0 0 0 0 0 0 0
0 0 0 0 0 0 0 0 0 0 0 0 0 0 0 0 0 0 0 0 0 0 0 0 0 0 0 0 0 0 0 0 0 0 0 0 0 0 0 0 0 0 0 0
0 0 0 0 0 0 0 0 0 0 0 0 0 0 0 0 0 0 0 0 0 0 0 0 0 0 0 0 0 0 0 0 0 0 0 0 0 0 0 0 0 0 0 0
0 0 0 0 0 0 0 0 0 0 0 0 0 0 0 0 0 0 0 0 0 0 0 0 0 0 0 0 0 0 0 0 0 0 0 0 0 0 0 0 0 0 0 0
0 0 0 0 0 0 0 0 0 0 0 0 0 0 0 0 0 0 0 0 0 0 0 0 0 0 0 0 0 0 0 0 0 0 0 0 0 0 0 0 0 0 0 0
0 0 0 0 0 0 0 0 0 0 0 0 0 0 0 0 0 0 0 0 0 0 0 0 0 0 0 0 0 0 0 0 0 0 0 0 0 0 0 0 0 0 0 0
0 0 0 0 0 0 0 0 0 0 0 0 0 0 0 0 0 0 0 0 0 0 0 0 0 0 0 0 0 0 0 0 0 0 0 0 0 0 0 0 0 0 0 0
0 0 0 0 0 0 0 0 0 0 0 0 0 0 0 0 0 0 0 0 0 0 0 0 0 0 0 0 0 0 0 0 0 0 0 0 0 0 0 0 -0 -0 -0 0
0 0 0 0 0 0 0 0 0 0 0 0 0 0 0 0 0 0 0 0 0 0 0 0 0 0 0 0 0 0 0 0 0 0 0 0 0 0 0 -0 -0 -0 -0 -0
Wind_Speed
2 2 4 4 6 7 7 7 7 6 5 7 5 5 6 6 6 8 8 7 7 6 5 4 4 4 4 5 5 5 5 5 6 7 7 8 9 10 11 11 13 13 14 15
2 2 0 2 5 6 5 4 5 5 9 5 4 3 1 3 8 9 8 7 7 6 5 4 4 3 3 4 4 5 5 5 6 8 9 9 10 11 12 12 13 14 14 15
1 3 3 5 6 7 5 5 6 7 6 3 3 4 2 3 6 8 8 8 6 5 4 3 3 2 2 3 4 4 4 6 7 8 10 10 12 12 12 13 13 14 14 15
2 2 5 5 2 5 5 2 4 4 4 3 1 3 3 1 6 8 8 7 6 4 3 2 2 2 2 3 4 4 5 6 7 8 10 10 10 11 11 11 12 13 14 14
3 2 7 6 2 3 5 2 2 2 2 2 2 2 4 4 3 6 6 6 5 4 3 2 2 2 3 3 4 5 6 7 8 8 10 11 12 11 11 12 12 12 13 14
4 3 7 4 2 2 3 2 2 2 3 1 1 3 4 2 5 7 6 5 4 3 3 2 2 3 4 5 6 6 7 7 7 7 9 10 11 11 10 11 12 13 14 13
4 4 8 7 5 1 3 4 2 3 4 4 2 3 2 6 5 6 6 5 4 3 2 2 2 4 5 5 6 6 7 7 7 7 8 9 8 8 11 12 12 12 13 12
5 5 9 4 2 4 4 2 3 4 3 2 2 3 5 7 7 7 5 5 4 3 2 2 3 4 4 5 6 6 7 7 8 7 8 10 9 10 10 10 12 11 12 12
9 8 3 1 3 4 5 4 3 2 1 3 5 6 6 5 5 4 5 4 3 3 1 2 3 3 4 6 6 7 7 8 8 9 7 8 8 10 10 8 9 10 10 11
3 3 2 3 4 2 4 5 5 4 2 2 4 6 6 5 5 4 4 3 2 1 2 3 3 4 5 6 6 7 8 8 8 8 8 7 7 7 8 9 9 10 10 11
3 2 3 4 4 5 4 3 3 3 3 4 4 3 4 3 3 4 4 3 1 2 3 4 5 6 6 6 6 7 8 8 8 7 7 8 8 7 10 8 11 14 11 11
5 4 3 3 2 3 4 4 5 6 4 1 1 1 2 3 3 4 3 2 1 3 4 4 5 6 7 6 6 7 8 8 7 6 7 7 9 11 16 17 22 23 22 20
4 3 3 1 1 1 1 1 2 2 3 2 1 1 3 3 3 2 1 1 3 4 5 5 6 7 7 7 6 7 8 9 7 7 7 8 8 10 13 15 18 20 21 24
2 3 2 2 1 1 2 2 2 1 0 2 3 3 3 3 2 1 2 3 4 5 5 6 7 9 8 7 7 8 8 11 10 7 7 8 8 9 10 13 13 11 14 21
2 2 2 1 2 2 1 3 4 4 4 3 3 3 4 3 3 3 3 3 4 6 6 7 8 10 8 7 8 9 8 7 7 7 7 8 8 9 10 12 12 12 11 13
3 1 1 2 4 5 5 5 6 5 4 4 4 4 4 4 2 3 4 4 5 7 7 7 9 10 9 8 9 8 7 14 14 8 7 8 8 9 10 11 12 11 11 11
4 4 4 4 5 5 5 6 6 5 5 6 6 5 3 1 3 5 6 6 6 7 8 9 10 9 8 8 8 7 7 9 16 11 7 9 9 9 9 10 10 11 10 14
5 4 4 5 5 5 5 5 5 5 6 6 5 3 3 3 5 6 6 6 6 7 8 9 9 9 8 7 7 7 6 6 7 8 9 9 10 10 9 10 11 12 10 12
5 4 4 5 5 5 4 4 5 5 5 5 5 4 5 5 5 6 6 6 7 8 7 7 15 12 9 10 13 6 7 8 9 9 10 14 13 9 9 10 11 11 11 11
4 4 5 5 4 4 4 5 5 5 5 5 5 5 5 6 5 5 5 6 6 7 7 10 10 8 7 9 15 7 7 9 10 10 10 10 10 10 10 11 11 11 11 11
6 6 6 6 5 5 6 6 6 6 6 6 6 5 5 5 5 5 5 7 7 7 8 15 9 7 8 11 15 7 7 9 10 9 10 10 10 11 11 11 11 12 12 11
5 5 6 6 6 6 5 6 6 6 5 5 4 4 4 5 6 5 6 7 8 14 11 7 6 12 16 19 8 7 7 8 9 8 8 8 9 10 10 10 9 10 10 10
5 5 6 7 7 6 5 5 6 5 5 4 4 4 4 5 4 5 7 5 6 14 11 7 14 22 25 13 6 7 9 9 9 9 8 8 8 9 9 10 9 9 8 9
6 6 6 5 5 5 6 6 5 4 3 3 3 4 4 4 4 4 6 12 17 19 10 14 22 24 23 8 7 8 9 9 8 8 10 9 8 8 9 9 10 9 9 9
5 5 4 4 5 5 5 3 3 2 1 2 4 4 3 3 5 6 7 9 15 17 10 14 21 22 14 9 9 10 8 8 10 10 9 8 9 9 9 9 10 9 9 8
3 3 3 4 3 2 2 3 2 1 1 2 3 3 4 4 5 6 7 8 11 16 12 10 11 14 10 10 11 11 9 10 11 10 10 10 11 11 10 10 11 9 8 7
1 1 1 2 2 2 3 2 1 0 1 2 4 4 4 5 6 7 8 8 9 9 10 10 10 10 10 11 11 11 10 9 9 10 10 9 9 9 10 10 9 8 7 7
Wind_Direction
119 129 149 178 191 188 188 193 202 231 230 242 247 241 240 227 174 146 152 146 133 127 119 103 85 66 50 29 14 7 1 2 355 348 346 345 343 339 336 335 333 328 328 326
52 26 90 245 240 225 221 212 236 274 278 251 248 256 241 166 155 161 158 142 135 130 122 109 97 80 53 22 360 357 358 355 349 350 348 345 339 336 334 332 330 329 327 324
187 331 13 272 239 206 200 195 191 226 253 323 346 29 33 194 173 164 155 146 140 132 129 124 113 88 47 4 355 359 358 353 353 350 345 339 335 334 331 329 326 324 322 321
117 74 241 232 284 195 176 192 219 249 297 329 67 86 12 328 170 160 148 138 133 141 144 132 101 59 28 11 4 358 354 350 349 344 336 332 330 327 324 323 321 318 317 316
123 198 277 304 323 145 149 108 31 91 47 79 121 74 347 349 124 137 132 137 148 155 146 120 77 44 30 11 1 358 350 343 338 334 330 329 326 322 318 319 316 313 313 314
132 179 236 242 247 245 112 108 2 33 21 341 352 332 280 166 110 114 126 140 140 129 113 89 41 34 30 8 356 342 329 322 319 319 320 319 314 312 314 314 311 313 312 311
153 224 264 258 265 79 166 217 351 44 33 19 318 250 182 136 133 143 147 142 131 123 102 61 34 34 16 350 327 310 307 307 309 311 311 309 308 311 312 312 311 310 310 309
158 198 253 279 91 130 165 130 76 55 44 76 142 142 146 161 168 166 153 142 138 124 86 42 28 22 346 315 300 300 302 304 307 307 308 316 311 308 308 309 311 312 311 310
186 203 209 27 117 134 134 139 168 179 199 167 178 194 191 189 179 162 149 139 120 100 44 355 352 348 312 298 302 306 307 306 305 304 299 300 303 308 310 310 311 311 312 313
234 257 160 141 128 139 167 186 203 206 216 221 227 216 196 179 169 154 135 123 107 77 306 308 309 302 290 295 303 307 304 302 300 301 303 301 301 302 306 308 308 308 311 313
250 263 111 150 207 220 223 227 228 233 232 239 245 221 188 170 157 143 133 131 164 259 283 288 292 295 298 300 303 301 297 297 300 301 305 309 307 302 305 295 304 312 313 314
230 218 165 217 246 193 198 221 230 230 234 316 348 213 159 160 150 144 146 167 258 283 286 288 294 296 295 291 290 294 304 308 305 305 305 305 307 309 306 308 313 315 317 317
193 169 180 219 82 113 196 269 300 256 222 187 219 205 163 144 135 135 150 263 280 283 286 292 298 296 293 292 294 295 299 303 303 300 300 303 305 306 309 312 314 316 318 319
174 140 140 168 226 37 51 39 27 5 248 207 196 165 143 141 151 188 241 261 275 289 297 301 298 293 294 297 298 295 294 299 302 296 296 298 299 300 304 310 314 315 316 316
113 123 181 220 134 136 199 225 233 235 229 208 178 167 170 185 214 240 265 295 312 309 300 295 291 293 298 299 298 296 295 291 289 287 291 295 298 301 304 306 308 309 310 313
172 197 235 217 222 231 228 229 239 244 219 198 197 196 196 202 235 292 309 310 298 290 289 289 289 291 297 297 297 296 289 299 309 305 300 300 299 301 303 305 305 304 307 311
183 222 215 228 238 243 235 227 229 227 200 194 196 191 188 228 298 294 286 278 269 272 278 283 286 292 294 290 288 291 289 297 308 310 297 296 297 298 298 299 301 301 303 308
203 204 210 227 243 250 243 219 207 194 186 190 176 173 204 239 256 266 275 284 287 283 280 281 287 298 295 293 291 288 289 292 296 296 295 294 296 297 298 299 299 300 302 308
194 212 233 247 250 241 232 209 191 184 178 170 177 206 230 243 253 266 278 288 292 295 291 289 307 312 299 295 304 292 292 295 297 295 296 299 303 297 295 296 299 302 305 310
213 216 227 239 236 219 211 197 182 183 188 186 200 223 248 262 268 277 283 281 275 272 281 293 297 290 290 291 303 289 288 293 297 299 300 300 299 300 299 301 304 307 309 309
226 219 217 217 219 216 205 190 184 196 201 199 209 230 252 272 281 285 288 291 286 283 292 301 303 296 298 300 304 294 293 296 299 301 302 303 303 303 303 304 306 307 307 307
233 227 225 216 212 215 210 198 196 201 203 213 228 244 264 279 287 286 270 271 283 297 301 287 288 299 306 309 301 297 298 300 302 301 298 298 298 299 298 296 295 297 298 299
251 241 234 222 215 215 212 208 209 207 213 225 241 255 262 267 273 282 289 281 285 297 302 290 300 306 310 312 301 302 303 301 299 297 295 291 288 287 289 291 291 292 292 294
250 246 239 227 205 203 215 218 212 209 214 236 253 264 272 284 283 264 269 296 304 304 300 298 306 309 315 311 300 298 295 294 292 290 291 290 289 290 293 296 296 295 292 292
246 244 230 204 203 213 215 194 179 191 229 274 284 287 282 265 272 285 286 288 297 305 301 303 307 310 310 297 295 294 293 287 290 294 294 297 297 296 294 293 291 291 291 290
237 232 219 209 205 185 159 149 154 170 234 284 291 290 285 278 276 282 287 288 290 301 303 300 299 301 297 294 294 294 293 294 297 296 292 291 290 290 290 290 288 288 288 285
184 157 135 123 117 121 117 117 126 250 286 284 287 286 286 292 294 294 294 295 296 296 295 295 295 294 294 294 295 295 294 292 291 291 291 290 290 289 289 288 288 288 286 283